Weather History for Los Angeles, CA

Change the Weather History Date:

Saturday, February 16, 2013

  Actual Average Record
Temperature  
Mean Temperature 67 °F 57 °F  
Max Temperature 80 °F 64 °F 84 °F (1953)
Min Temperature 54 °F 50 °F 39 °F (1990)
Degree Days  
Heating Degree Days 0 8  
Month to date heating degree days 137 128  
Since 1 July heating degree days 759 832  
Cooling Degree Days 2 0  
Month to date cooling degree days 2 0  
Year to date cooling degree days 8 4  
Growing Degree Days 17 (Base 50)    
Moisture  
Dew Point 30 °F    
Average Humidity 39    
Maximum Humidity 67    
Minimum Humidity 10    
Precipitation  
Precipitation 0.00 in 0.13 in 1.82 in (1980)
Month to date precipitation 0.07 1.83  
Year to date precipitation 1.37 4.54  
Since 1 July precipitation 5.65 8.55  
Sea Level Pressure  
Sea Level Pressure 30.07 in    
Wind  
Wind Speed 6 mph (West)    
Max Wind Speed 16 mph    
Max Gust Speed 20 mph    
Visibility 10 miles    
Events      
T = Trace of Precipitation, MM = Missing Value Source: NWS Daily Summary

Daily Weather History Graph

Daily Weather History Graph

Search for Another Location

Airport:

Trip Planner

Search our weather history database for the weather conditions in past years. The results will help you decide how hot, cold, wet, or windy it might be!

Date:

Astronomy

Feb. 16, 2013 Rise Set
Actual Time 6:36 AM PST 5:38 PM PST
Civil Twilight 6:11 AM PST 6:04 PM PST
Nautical Twilight 5:42 AM PST 6:33 PM PST
Astronomical Twilight 5:12 AM PST 7:02 PM PST
Moon 10:13 AM PST (2/16) No Moon Set
Length of Visible Light 11h 53m
Length of Day
11h 02m
Waxing Crescent, 40% of the Moon is Illuminated
Feb 16
Waxing Crescent
Feb 17
First Quarter
Feb 25
Full
Mar 4
Last Quarter
Mar 11
New

Hourly Weather History & Observations

Time (PST) Temp. Dew Point Humidity Pressure Visibility Wind Dir Wind Speed Gust Speed Precip Events Conditions
12:53 AM 64.9 °F 26.1 °F 23% 30.15 in 10.0 mi Calm Calm - N/A   Mostly Cloudy
1:53 AM 61.0 °F 27.0 °F 27% 30.14 in 10.0 mi Calm Calm - N/A   Mostly Cloudy
2:53 AM 57.0 °F 27.0 °F 32% 30.13 in 10.0 mi Calm Calm - N/A   Mostly Cloudy
3:53 AM 55.0 °F 26.1 °F 33% 30.12 in 10.0 mi East 4.6 mph - N/A   Mostly Cloudy
4:53 AM 57.0 °F 25.0 °F 29% 30.12 in 10.0 mi NE 4.6 mph - N/A   Mostly Cloudy
5:53 AM 55.0 °F 25.0 °F 31% 30.13 in 10.0 mi Calm Calm - N/A   Mostly Cloudy
6:53 AM 57.9 °F 21.0 °F 24% 30.14 in 10.0 mi ENE 5.8 mph - N/A   Mostly Cloudy
7:53 AM 63.0 °F 23.0 °F 22% 30.15 in 10.0 mi NE 6.9 mph - N/A   Scattered Clouds
8:53 AM 69.1 °F 19.9 °F 15% 30.15 in 10.0 mi Variable 4.6 mph - N/A   Scattered Clouds
9:53 AM 73.9 °F 21.0 °F 14% 30.15 in 10.0 mi NE 6.9 mph - N/A   Scattered Clouds
10:53 AM 75.0 °F 18.0 °F 12% 30.14 in 10.0 mi Variable 5.8 mph - N/A   Mostly Cloudy
11:53 AM 79.0 °F 17.1 °F 10% 30.10 in 10.0 mi Variable 3.5 mph - N/A   Mostly Cloudy
12:53 PM 77.0 °F 24.1 °F 14% 30.06 in 10.0 mi West 16.1 mph 19.6 mph N/A   Scattered Clouds
1:53 PM 72.0 °F 39.0 °F 30% 30.04 in 10.0 mi West 11.5 mph - N/A   Scattered Clouds
2:53 PM 73.0 °F 30.9 °F 21% 30.03 in 10.0 mi West 12.7 mph - N/A   Scattered Clouds
3:53 PM 70.0 °F 32.0 °F 25% 30.02 in 10.0 mi West 11.5 mph - N/A   Scattered Clouds
4:53 PM 70.0 °F 27.0 °F 20% 30.00 in 10.0 mi West 10.4 mph - N/A   Scattered Clouds
5:53 PM 66.0 °F 30.9 °F 27% 30.00 in 10.0 mi West 9.2 mph - N/A   Partly Cloudy
6:53 PM 64.0 °F 35.1 °F 34% 30.00 in 10.0 mi West 11.5 mph - N/A   Partly Cloudy
7:53 PM 62.1 °F 37.9 °F 41% 29.99 in 10.0 mi West 6.9 mph - N/A   Partly Cloudy
8:53 PM 60.1 °F 41.0 °F 49% 29.98 in 10.0 mi WSW 5.8 mph - N/A   Clear
9:53 PM 60.1 °F 44.1 °F 55% 29.98 in 10.0 mi WSW 8.1 mph - N/A   Clear
10:53 PM 57.9 °F 46.0 °F 65% 29.98 in 10.0 mi WSW 3.5 mph - N/A   Clear
11:53 PM 57.0 °F 45.0 °F 64% 29.97 in 10.0 mi Calm Calm - N/A   Clear